Flag for Germany Weather past 2 weeks in Ganderkesee, Lower Saxony, Germany

41 °F

Light rain. Partly sunny.

Feels Like: 32 °F
Forecast: 41 / 51 °F
Wind: 17 mph from Southwest

Location: Bremen Airport

Current Time: Nov 30, 2015 at 3:33:09 PM

Latest Report: Nov 30, 2015 at 2:50 PM

Visibility: N/A

Pressure: 29.86 "Hg

Humidity: 76%

Dew point: 34 °F

Location of GanderkeseeLocation

Historic Weather in Ganderkesee — Graph


Ganderkesee temperature yesterday

Maximum temperature yesterday: 52 °F (at 6:20 PM)
Minimum temperature yesterday: 43 °F (at 12:20 AM)
Average temperature yesterday: 48 °F

Past Weeks' High & Low Weather Summary

High57 °F (Nov 15, 6:50 PM)100% (Nov 15, 2:50 PM)30.18 "Hg (Nov 15, 2:50 PM)
Low28 °F (Nov 22, 12:20 AM)57% (Nov 23, 1:20 PM)29.33 "Hg (Nov 21, 3:20 AM)
Average44 °F87%29.74 "Hg
* Reported Nov 15 2:20 PM — Nov 30 2:20 PM, Ganderkesee, Weather by CustomWeather, © 2015

Note: Actual official high and low records may vary slightly from our data, if they occured in-between our weather recording intervals... More about our weather records


Ganderkesee weather history for previous 24 hours

Time TempWeatherWind HumidityBarometerVisibility
2:20 PM
Mon, Nov 30
43 °FLight rain. Clear.16 mph71%29.86 "HgN/A
1:50 PM43 °FLight rain. Clear.22 mph66%29.89 "HgN/A
1:20 PM45 °FSunny.16 mph71%29.92 "Hg10 mi
12:50 PM45 °FSunny.18 mph71%29.92 "Hg10 mi
12:20 PM45 °FSunny.17 mph71%29.92 "Hg10 mi
11:50 AM45 °FSunny.17 mph71%29.92 "Hg10 mi
11:20 AM45 °FSunny.18 mph71%29.95 "Hg10 mi
10:50 AM43 °FSunny.20 mph76%29.95 "Hg10 mi
10:20 AM43 °FSunny.17 mph76%29.92 "Hg10 mi
9:50 AM43 °FSunny.18 mph76%29.92 "Hg10 mi
9:20 AM43 °FSunny.20 mph76%29.92 "Hg10 mi
7:50 AM43 °FPassing clouds.22 mph71%29.89 "HgN/A
7:20 AM43 °FPassing clouds.24 mph71%29.86 "HgN/A
6:50 AM43 °FPassing clouds.23 mph76%29.83 "HgN/A
6:20 AM43 °FPassing clouds.20 mph76%29.83 "HgN/A
5:50 AM41 °FPassing clouds.23 mph81%29.80 "HgN/A
5:20 AM43 °FRain showers. Passing clouds.22 mph81%29.80 "Hg5 mi
4:20 AM41 °FSprinkles. Passing clouds.29 mph87%29.77 "HgN/A
3:50 AM43 °FPassing clouds.16 mph81%29.74 "HgN/A
3:20 AM45 °FClear.21 mph76%29.74 "Hg10 mi
1:50 AM43 °FClear.23 mph81%29.68 "Hg10 mi
1:20 AM43 °FClear.25 mph76%29.68 "Hg10 mi
12:50 AM45 °FClear.32 mph71%29.65 "Hg10 mi
11:50 PM
Sun, Nov 29
46 °FPassing clouds.23 mph76%29.59 "HgN/A
11:20 PM46 °FSprinkles. Passing clouds.21 mph82%29.56 "HgN/A
10:50 PM48 °FPassing clouds.24 mph76%29.56 "HgN/A
10:20 PM48 °FPassing clouds.26 mph76%29.53 "HgN/A
9:50 PM48 °FPassing clouds.17 mph87%29.53 "HgN/A
9:20 PM50 °FSprinkles. Passing clouds.22 mph82%29.50 "HgN/A
8:50 PM50 °FSprinkles. Partly cloudy.25 mph82%29.50 "HgN/A
8:20 PM52 °FThunderstorms. Passing clouds.28 mph88%29.47 "Hg6 mi
7:50 PM52 °FSprinkles. Passing clouds.29 mph82%29.45 "HgN/A
7:20 PM52 °FLight rain. Passing clouds.26 mph82%29.47 "HgN/A
6:50 PM52 °FPassing clouds.24 mph82%29.47 "HgN/A
6:20 PM52 °FPassing clouds.25 mph82%29.50 "HgN/A
5:50 PM50 °FPassing clouds.24 mph88%29.50 "HgN/A
5:20 PM50 °FPassing clouds.21 mph88%29.53 "HgN/A
4:50 PM48 °FPassing clouds.17 mph94%29.53 "HgN/A
4:20 PM48 °FLight rain. Passing clouds.18 mph87%29.56 "HgN/A
3:50 PM48 °FLight rain. Partly sunny.18 mph87%29.56 "HgN/A
3:20 PM50 °FLight rain. Partly sunny.20 mph82%29.56 "HgN/A
Weather by CustomWeather, © 2015

See weather overviewHow to use our weather pages